Time,TemperatureF,DewpointF,PressureIn,WindDirection,WindDirectionDegrees,WindSpeedMPH,WindSpeedGustMPH,Humidity,HourlyPrecipIn,Conditions,Clouds,dailyrainin,SoftwareType,DateUTC
2013-04-05 00:03:00,37.0,18.0,29.98,South,174,1.0,3.0,46,0.00,,,0.00,,2013-04-05 04:03:00,
2013-04-05 00:12:00,37.0,18.0,29.98,South,174,1.0,3.0,46,0.00,,,0.00,,2013-04-05 04:12:00,
2013-04-05 00:23:00,37.0,18.0,29.98,South,174,1.0,3.0,46,0.00,,,0.00,,2013-04-05 04:23:00,
2013-04-05 00:33:00,36.0,18.0,29.97,SSE,158,1.0,3.0,47,0.00,,,0.00,,2013-04-05 04:33:00,
2013-04-05 00:42:00,36.0,18.0,29.97,SSE,158,1.0,3.0,47,0.00,,,0.00,,2013-04-05 04:42:00,
2013-04-05 00:52:00,36.0,18.0,29.97,SSE,158,1.0,3.0,47,0.00,,,0.00,,2013-04-05 04:52:00,
2013-04-05 01:02:00,36.0,17.0,29.97,South,171,0.0,1.0,45,0.00,,,0.00,,2013-04-05 05:02:00,
2013-04-05 01:13:00,36.0,17.0,29.97,South,171,0.0,1.0,45,0.00,,,0.00,,2013-04-05 05:13:00,
2013-04-05 01:22:00,37.0,18.0,29.96,SSE,151,0.0,3.0,45,0.00,,,0.00,,2013-04-05 05:22:00,
2013-04-05 01:32:00,37.0,18.0,29.96,South,181,1.0,4.0,45,0.00,,,0.00,,2013-04-05 05:32:00,
2013-04-05 01:42:00,37.0,18.0,29.96,South,181,1.0,4.0,45,0.00,,,0.00,,2013-04-05 05:42:00,
2013-04-05 01:52:00,37.0,17.0,29.95,South,185,2.0,4.0,44,0.00,,,0.00,,2013-04-05 05:52:00,
2013-04-05 02:02:00,37.0,17.0,29.95,South,175,1.0,5.0,43,0.00,,,0.00,,2013-04-05 06:02:00,
2013-04-05 02:12:00,37.0,17.0,29.95,South,175,1.0,5.0,43,0.00,,,0.00,,2013-04-05 06:12:00,
2013-04-05 02:22:00,37.0,17.0,29.94,SSE,163,1.0,4.0,43,0.00,,,0.00,,2013-04-05 06:22:00,
2013-04-05 02:32:00,37.0,17.0,29.94,South,170,1.0,3.0,43,0.00,,,0.00,,2013-04-05 06:32:00,
2013-04-05 02:42:00,37.0,17.0,29.94,South,170,1.0,3.0,43,0.00,,,0.00,,2013-04-05 06:42:00,
2013-04-05 02:52:00,37.0,16.0,29.95,SSW,211,0.0,3.0,41,0.00,,,0.00,,2013-04-05 06:52:00,
2013-04-05 03:03:00,37.0,16.0,29.96,NW,320,1.0,4.0,42,0.00,,,0.00,,2013-04-05 07:03:00,
2013-04-05 03:12:00,37.0,16.0,29.96,NW,320,1.0,4.0,42,0.00,,,0.00,,2013-04-05 07:12:00,
2013-04-05 03:22:00,37.0,16.0,29.96,NNW,348,2.0,5.0,42,0.00,,,0.00,,2013-04-05 07:22:00,
2013-04-05 03:32:00,37.0,16.0,29.96,NW,323,2.0,6.0,42,0.00,,,0.00,,2013-04-05 07:32:00,
2013-04-05 03:42:00,37.0,16.0,29.96,NW,323,2.0,6.0,42,0.00,,,0.00,,2013-04-05 07:42:00,
2013-04-05 03:52:00,37.0,15.0,29.96,NNW,343,2.0,6.0,40,0.00,,,0.00,,2013-04-05 07:52:00,
2013-04-05 04:03:00,37.0,16.0,29.96,NNW,331,2.0,6.0,41,0.00,,,0.00,,2013-04-05 08:03:00,
2013-04-05 04:13:00,37.0,16.0,29.96,NNW,331,2.0,6.0,41,0.00,,,0.00,,2013-04-05 08:13:00,
2013-04-05 04:22:00,37.0,16.0,29.96,North,5,2.0,5.0,42,0.00,,,0.00,,2013-04-05 08:22:00,
2013-04-05 04:33:00,36.0,16.0,29.95,NW,325,2.0,5.0,43,0.00,,,0.00,,2013-04-05 08:33:00,
2013-04-05 04:43:00,36.0,16.0,29.95,NW,325,2.0,5.0,43,0.00,,,0.00,,2013-04-05 08:43:00,
2013-04-05 04:52:00,36.0,17.0,29.95,NNW,344,2.0,4.0,45,0.00,,,0.00,,2013-04-05 08:52:00,
2013-04-05 05:02:00,36.0,16.0,29.96,NNW,327,2.0,5.0,44,0.00,,,0.00,,2013-04-05 09:02:00,
2013-04-05 05:12:00,36.0,16.0,29.96,NNW,327,2.0,5.0,44,0.00,,,0.00,,2013-04-05 09:12:00,
2013-04-05 05:22:00,36.0,17.0,29.96,North,355,2.0,4.0,46,0.00,,,0.00,,2013-04-05 09:22:00,
2013-04-05 05:33:00,36.0,18.0,29.96,NW,326,2.0,5.0,48,0.00,,,0.00,,2013-04-05 09:33:00,
2013-04-05 05:43:00,36.0,18.0,29.96,NW,326,2.0,5.0,48,0.00,,,0.00,,2013-04-05 09:43:00,
2013-04-05 05:52:00,36.0,21.0,29.97,NW,324,2.0,6.0,53,0.00,,,0.00,,2013-04-05 09:52:00,
2013-04-05 06:03:00,36.0,23.0,29.97,NNW,336,1.0,5.0,60,0.00,,,0.00,,2013-04-05 10:03:00,
2013-04-05 06:13:00,36.0,23.0,29.97,NNW,336,1.0,5.0,60,0.00,,,0.00,,2013-04-05 10:13:00,
2013-04-05 06:23:00,36.0,25.0,29.97,NNW,330,1.0,5.0,63,0.00,,,0.00,,2013-04-05 10:23:00,
2013-04-05 06:33:00,35.0,25.0,29.97,WNW,300,1.0,3.0,67,0.00,,,0.00,,2013-04-05 10:33:00,
2013-04-05 06:43:00,35.0,25.0,29.97,WNW,300,1.0,3.0,67,0.00,,,0.00,,2013-04-05 10:43:00,
2013-04-05 06:52:00,35.0,26.0,29.98,NW,304,0.0,2.0,69,0.00,,,0.00,,2013-04-05 10:52:00,
2013-04-05 07:03:00,35.0,25.0,29.98,WNW,294,1.0,3.0,66,0.00,,,0.00,,2013-04-05 11:03:00,
2013-04-05 07:13:00,35.0,25.0,29.98,WNW,294,1.0,3.0,66,0.00,,,0.00,,2013-04-05 11:13:00,
2013-04-05 07:22:00,35.0,25.0,29.99,NW,325,0.0,3.0,67,0.00,,,0.00,,2013-04-05 11:22:00,
2013-04-05 07:33:00,34.0,25.0,29.99,NW,315,0.0,2.0,69,0.00,,,0.00,,2013-04-05 11:33:00,
2013-04-05 07:42:00,34.0,25.0,29.99,NW,315,0.0,2.0,69,0.00,,,0.00,,2013-04-05 11:42:00,
2013-04-05 07:52:00,35.0,26.0,30.00,WNW,294,1.0,4.0,70,0.00,,,0.00,,2013-04-05 11:52:00,
2013-04-05 08:02:00,35.0,27.0,30.01,NW,322,1.0,4.0,71,0.00,,,0.00,,2013-04-05 12:02:00,
2013-04-05 08:12:00,35.0,27.0,30.01,NW,322,1.0,4.0,71,0.00,,,0.00,,2013-04-05 12:12:00,
2013-04-05 08:22:00,35.0,27.0,30.01,WNW,295,2.0,6.0,72,0.00,,,0.00,,2013-04-05 12:22:00,
2013-04-05 08:32:00,36.0,28.0,30.01,NNW,327,4.0,8.0,71,0.00,,,0.00,,2013-04-05 12:32:00,
2013-04-05 08:42:00,36.0,28.0,30.01,NNW,327,4.0,8.0,71,0.00,,,0.00,,2013-04-05 12:42:00,
2013-04-05 08:52:00,37.0,28.0,30.01,NW,324,5.0,10.0,69,0.00,,,0.00,,2013-04-05 12:52:00,
2013-04-05 09:02:00,37.0,28.0,30.02,NW,322,4.0,7.0,69,0.00,,,0.00,,2013-04-05 13:02:00,
2013-04-05 09:12:00,37.0,28.0,30.02,NW,322,4.0,7.0,69,0.00,,,0.00,,2013-04-05 13:12:00,
2013-04-05 09:23:00,37.0,27.0,30.01,North,5,5.0,7.0,68,0.00,,,0.00,,2013-04-05 13:23:00,
2013-04-05 09:32:00,38.0,27.0,30.02,NW,326,5.0,12.0,65,0.00,,,0.00,,2013-04-05 13:32:00,
2013-04-05 09:42:00,38.0,27.0,30.02,NW,326,5.0,12.0,65,0.00,,,0.00,,2013-04-05 13:42:00,
2013-04-05 09:52:00,38.0,28.0,30.02,NW,318,5.0,11.0,66,0.00,,,0.00,,2013-04-05 13:52:00,
2013-04-05 10:03:00,40.0,28.0,30.01,NW,317,3.0,10.0,62,0.00,,,0.00,,2013-04-05 14:03:00,
2013-04-05 10:12:00,40.0,28.0,30.01,NW,317,3.0,10.0,62,0.00,,,0.00,,2013-04-05 14:12:00,
2013-04-05 10:23:00,40.0,26.0,30.01,NNW,334,5.0,10.0,58,0.00,,,0.00,,2013-04-05 14:23:00,
2013-04-05 10:37:00,41.0,27.0,30.02,NW,322,4.0,10.0,56,0.00,,,0.00,,2013-04-05 14:37:00,
2013-04-05 10:43:00,41.0,27.0,30.02,NW,322,4.0,10.0,56,0.00,,,0.00,,2013-04-05 14:43:00,
2013-04-05 10:52:00,41.0,27.0,30.02,NW,311,4.0,10.0,56,0.00,,,0.00,,2013-04-05 14:52:00,
2013-04-05 11:02:00,41.0,26.0,30.02,North,355,6.0,13.0,55,0.00,,,0.00,,2013-04-05 15:02:00,
2013-04-05 11:13:00,41.0,26.0,30.02,North,355,6.0,13.0,55,0.00,,,0.00,,2013-04-05 15:13:00,
2013-04-05 11:23:00,42.0,27.0,30.03,NW,323,6.0,12.0,55,0.00,,,0.00,,2013-04-05 15:23:00,
2013-04-05 11:33:00,42.0,27.0,30.03,NNE,17,6.0,14.0,54,0.00,,,0.00,,2013-04-05 15:33:00,
2013-04-05 11:43:00,42.0,27.0,30.03,NNE,17,6.0,14.0,54,0.00,,,0.00,,2013-04-05 15:43:00,
2013-04-05 11:53:00,41.0,26.0,30.03,NNE,22,7.0,14.0,54,0.00,,,0.00,,2013-04-05 15:53:00,
2013-04-05 12:03:00,41.0,26.0,30.03,NNW,333,6.0,15.0,55,0.00,,,0.00,,2013-04-05 16:03:00,
2013-04-05 12:13:00,41.0,26.0,30.03,NNW,333,6.0,15.0,55,0.00,,,0.00,,2013-04-05 16:13:00,
2013-04-05 12:23:00,42.0,27.0,30.03,NNW,336,6.0,13.0,55,0.00,,,0.00,,2013-04-05 16:23:00,
2013-04-05 12:33:00,42.0,29.0,30.03,NNW,335,6.0,13.0,60,0.00,,,0.00,,2013-04-05 16:33:00,
2013-04-05 12:42:00,42.0,29.0,30.03,NNW,335,6.0,13.0,60,0.00,,,0.00,,2013-04-05 16:42:00,
2013-04-05 12:52:00,43.0,28.0,30.03,NNW,342,8.0,13.0,56,0.00,,,0.00,,2013-04-05 16:52:00,
2013-04-05 13:03:00,41.0,28.0,30.03,NNE,16,5.0,12.0,60,0.00,,,0.00,,2013-04-05 17:03:00,
2013-04-05 13:13:00,41.0,28.0,30.03,NNE,16,5.0,12.0,60,0.00,,,0.00,,2013-04-05 17:13:00,
2013-04-05 13:23:00,41.0,27.0,30.04,NW,322,6.0,12.0,57,0.00,,,0.00,,2013-04-05 17:23:00,
2013-04-05 13:33:00,40.0,27.0,30.04,NW,325,6.0,12.0,60,0.00,,,0.00,,2013-04-05 17:33:00,
2013-04-05 13:45:00,40.0,27.0,30.04,NW,325,6.0,12.0,60,0.00,,,0.00,,2013-04-05 17:45:00,
2013-04-05 13:52:00,40.0,27.0,30.04,NNE,15,8.0,14.0,60,0.00,,,0.00,,2013-04-05 17:52:00,
2013-04-05 14:03:00,39.0,26.0,30.04,NW,324,4.0,12.0,60,0.00,,,0.00,,2013-04-05 18:03:00,
2013-04-05 14:13:00,39.0,26.0,30.04,NW,324,4.0,12.0,60,0.00,,,0.00,,2013-04-05 18:13:00,
2013-04-05 14:23:00,40.0,27.0,30.04,NNW,346,5.0,13.0,59,0.00,,,0.00,,2013-04-05 18:23:00,
2013-04-05 14:33:00,40.0,26.0,30.04,North,5,5.0,11.0,58,0.00,,,0.00,,2013-04-05 18:33:00,
2013-04-05 14:43:00,40.0,26.0,30.04,North,5,5.0,11.0,58,0.00,,,0.00,,2013-04-05 18:43:00,
2013-04-05 14:52:00,42.0,25.0,30.04,NNW,342,6.0,14.0,51,0.00,,,0.00,,2013-04-05 18:52:00,
2013-04-05 15:02:00,41.0,25.0,30.04,North,350,7.0,13.0,52,0.00,,,0.00,,2013-04-05 19:02:00,
2013-04-05 15:13:00,41.0,25.0,30.04,North,350,7.0,13.0,52,0.00,,,0.00,,2013-04-05 19:13:00,
2013-04-05 15:23:00,42.0,25.0,30.04,North,5,7.0,13.0,51,0.00,,,0.00,,2013-04-05 19:23:00,
2013-04-05 15:33:00,42.0,25.0,30.04,North,5,7.0,13.0,51,0.00,,,0.00,,2013-04-05 19:33:00,
2013-04-05 15:42:00,42.0,25.0,30.04,North,5,7.0,13.0,51,0.00,,,0.00,,2013-04-05 19:42:00,
2013-04-05 15:52:00,42.0,25.0,30.04,North,5,7.0,13.0,51,0.00,,,0.00,,2013-04-05 19:52:00,
2013-04-05 16:22:00,40.0,26.0,30.05,West,279,5.0,12.0,58,0.00,,,0.00,,2013-04-05 20:22:00,
2013-04-05 16:33:00,40.0,26.0,30.05,West,279,5.0,12.0,58,0.00,,,0.00,,2013-04-05 20:33:00,
2013-04-05 16:42:00,40.0,26.0,30.05,West,279,5.0,12.0,58,0.00,,,0.00,,2013-04-05 20:42:00,
2013-04-05 16:52:00,39.0,26.0,30.05,North,355,6.0,13.0,60,0.00,,,0.00,,2013-04-05 20:52:00,
2013-04-05 17:03:00,38.0,25.0,30.05,NW,319,7.0,17.0,58,0.00,,,0.00,,2013-04-05 21:03:00,
2013-04-05 17:13:00,38.0,25.0,30.05,NW,319,7.0,17.0,58,0.00,,,0.00,,2013-04-05 21:13:00,
2013-04-05 17:23:00,38.0,25.0,30.05,NW,319,7.0,17.0,58,0.00,,,0.00,,2013-04-05 21:23:00,
2013-04-05 17:34:00,38.0,23.0,30.06,NNW,329,8.0,22.0,55,0.00,,,0.00,,2013-04-05 21:34:00,
2013-04-05 17:43:00,38.0,23.0,30.06,NNW,329,8.0,22.0,55,0.00,,,0.00,,2013-04-05 21:43:00,
2013-04-05 17:55:00,38.0,22.0,30.06,North,360,7.0,18.0,52,0.00,,,0.00,,2013-04-05 21:55:00,
2013-04-05 18:03:00,38.0,23.0,30.07,NNW,336,5.0,11.0,54,0.00,,,0.00,,2013-04-05 22:03:00,
2013-04-05 18:13:00,38.0,23.0,30.07,NNW,336,5.0,11.0,54,0.00,,,0.00,,2013-04-05 22:13:00,
2013-04-05 18:23:00,38.0,21.0,30.08,North,5,8.0,14.0,50,0.00,,,0.00,,2013-04-05 22:23:00,
2013-04-05 18:33:00,38.0,22.0,30.09,NNE,32,6.0,16.0,51,0.00,,,0.00,,2013-04-05 22:33:00,
2013-04-05 18:43:00,38.0,22.0,30.09,NNE,32,6.0,16.0,51,0.00,,,0.00,,2013-04-05 22:43:00,
2013-04-05 18:52:00,37.0,21.0,30.09,NW,320,4.0,18.0,51,0.00,,,0.00,,2013-04-05 22:52:00,
2013-04-05 19:03:00,37.0,20.0,30.10,NNW,327,6.0,15.0,49,0.00,,,0.00,,2013-04-05 23:03:00,
2013-04-05 19:12:00,37.0,20.0,30.10,NNW,327,6.0,15.0,49,0.00,,,0.00,,2013-04-05 23:12:00,
2013-04-05 19:22:00,36.0,20.0,30.11,NNW,331,3.0,11.0,51,0.00,,,0.00,,2013-04-05 23:22:00,
2013-04-05 19:33:00,35.0,17.0,30.11,NNW,333,6.0,12.0,48,0.00,,,0.00,,2013-04-05 23:33:00,
2013-04-05 19:42:00,35.0,17.0,30.11,NNW,333,6.0,12.0,48,0.00,,,0.00,,2013-04-05 23:42:00,
2013-04-05 19:52:00,34.0,18.0,30.12,North,350,4.0,11.0,51,0.00,,,0.00,,2013-04-05 23:52:00,
2013-04-05 20:03:00,33.0,17.0,30.12,NNW,346,6.0,14.0,51,0.00,,,0.00,,2013-04-06 00:03:00,
2013-04-05 20:13:00,33.0,17.0,30.12,NNW,346,6.0,14.0,51,0.00,,,0.00,,2013-04-06 00:13:00,
2013-04-05 20:23:00,33.0,18.0,30.13,North,360,5.0,10.0,53,0.00,,,0.00,,2013-04-06 00:23:00,
2013-04-05 20:33:00,32.0,18.0,30.14,NNW,333,4.0,9.0,56,0.00,,,0.00,,2013-04-06 00:33:00,
2013-04-05 20:42:00,32.0,18.0,30.14,NNW,333,4.0,9.0,56,0.00,,,0.00,,2013-04-06 00:42:00,
2013-04-05 20:52:00,32.0,19.0,30.14,NW,316,3.0,8.0,57,0.00,,,0.00,,2013-04-06 00:52:00,
2013-04-05 21:02:00,31.0,18.0,30.15,NNW,343,3.0,11.0,57,0.00,,,0.00,,2013-04-06 01:02:00,
2013-04-05 21:13:00,31.0,18.0,30.16,NNW,330,4.0,9.0,58,0.00,,,0.00,,2013-04-06 01:13:00,
2013-04-05 21:23:00,31.0,18.0,30.16,NNW,330,4.0,9.0,58,0.00,,,0.00,,2013-04-06 01:23:00,
2013-04-05 21:33:00,31.0,18.0,30.17,NW,314,4.0,10.0,59,0.00,,,0.00,,2013-04-06 01:33:00,
2013-04-05 21:43:00,31.0,18.0,30.17,NW,314,4.0,10.0,59,0.00,,,0.00,,2013-04-06 01:43:00,
2013-04-05 21:52:00,31.0,18.0,30.17,NW,313,5.0,10.0,58,0.00,,,0.00,,2013-04-06 01:52:00,
2013-04-05 22:02:00,31.0,18.0,30.18,NNW,329,4.0,12.0,59,0.00,,,0.00,,2013-04-06 02:02:00,
2013-04-05 22:12:00,31.0,18.0,30.18,NNW,329,4.0,12.0,59,0.00,,,0.00,,2013-04-06 02:12:00,
2013-04-05 22:23:00,30.0,18.0,30.19,North,5,5.0,9.0,60,0.00,,,0.00,,2013-04-06 02:23:00,
2013-04-05 22:33:00,30.0,18.0,30.19,NNW,328,3.0,10.0,61,0.00,,,0.00,,2013-04-06 02:33:00,
2013-04-05 22:42:00,30.0,18.0,30.19,NNW,328,3.0,10.0,61,0.00,,,0.00,,2013-04-06 02:42:00,
2013-04-05 22:52:00,30.0,19.0,30.20,NNW,344,3.0,8.0,62,0.00,,,0.00,,2013-04-06 02:52:00,
2013-04-05 23:03:00,29.0,18.0,30.20,NNE,27,2.0,6.0,63,0.00,,,0.00,,2013-04-06 03:03:00,
2013-04-05 23:13:00,29.0,18.0,30.20,NNE,27,2.0,6.0,63,0.00,,,0.00,,2013-04-06 03:13:00,
2013-04-05 23:22:00,29.0,18.0,30.20,NW,305,4.0,8.0,64,0.00,,,0.00,,2013-04-06 03:22:00,
2013-04-05 23:34:00,29.0,18.0,30.21,NNW,327,3.0,7.0,64,0.00,,,0.00,,2013-04-06 03:34:00,
2013-04-05 23:43:00,29.0,18.0,30.21,NNW,327,3.0,7.0,64,0.00,,,0.00,,2013-04-06 03:43:00,
2013-04-05 23:53:00,29.0,18.0,30.21,NW,321,3.0,7.0,64,0.00,,,0.00,,2013-04-06 03:53:00,